CW3175 Weather Reports


time (UTC)temp
F
wind
direction
speed
knots
gust
knots
rain 1hr
in
rain 24hr
in
rain mn
in
humidity
%
barometer
mb
20150702230436 66 315 3.5 8.7 0.00 0.00 0.00 68 1012.8
20150702224936 66 13 4.3 11.3 0.00 0.00 0.00 67 1012.8
20150702223435 66 350 5.2 10.4 0.00 0.00 0.00 66 1012.7
20150702221935 67 19 4.3 9.6 0.00 0.00 0.00 66 1013.1
20150702220434 67 21 4.3 9.6 0.00 0.00 0.00 63 1013.2
20150702214934 67 0 3.5 10.4 0.00 0.00 0.00 63 1013.2
20150702213435 67 32 3.5 9.6 0.00 0.00 0.00 64 1013.1
20150702211928 67 13 5.2 11.3 0.00 0.00 0.00 64 1013.2
20150702210426 66 0 6.1 12.2 0.00 0.00 0.00 65 1013.3
20150702204923 66 48 6.1 12.2 0.00 0.00 0.00 66 1013.3
20150702203423 66 19 4.3 10.4 0.00 0.00 0.00 66 1013.3
20150702201924 65 47 7.0 13.9 0.00 0.00 0.00 69 1013.3
20150702200418 65 38 7.0 12.2 0.00 0.00 0.00 69 1013.3
20150702194918 65 49 6.1 15.6 0.00 0.00 0.00 68 1013.3
20150702193413 65 0 7.8 13.9 0.00 0.00 0.00 68 1013.4
20150702191912 66 49 7.0 13.0 0.00 0.00 0.00 68 1013.9
20150702190408 65 0 7.8 13.9 0.00 0.00 0.00 69 1014.0
20150702184907 66 25 6.1 12.2 0.00 0.00 0.00 70 1013.9
20150702183408 65 349 7.0 13.0 0.00 0.00 0.00 74 1014.0
20150702181900 65 32 6.1 10.4 0.00 0.00 0.00 71 1013.9
20150702180359 64 53 8.7 15.6 0.00 0.00 0.00 74 1014.0
20150702174859 65 64 5.2 13.9 0.00 0.00 0.00 73 1014.0
20150702173400 64 24 6.1 13.0 0.00 0.00 0.00 74 1014.2
20150702171900 65 29 6.1 15.6 0.00 0.00 0.00 73 1014.2
20150702170350 65 46 5.2 11.3 0.00 0.00 0.00 74 1014.4
20150702164848 64 53 6.1 13.0 0.00 0.00 0.00 74 1014.4
20150702163347 64 13 5.2 12.2 0.00 0.00 0.00 75 1014.3
20150702161844 63 71 7.8 13.0 0.00 0.00 0.00 77 1014.2
20150702160345 64 53 5.2 12.2 0.00 0.00 0.00 77 1014.2
20150702154845 63 34 7.0 12.2 0.00 0.00 0.00 78 1014.3
20150702153338 63 57 7.0 14.8 0.00 0.00 0.00 80 1014.5
20150702151834 63 73 7.8 13.9 0.00 0.00 0.00 80 1014.3
20150702150334 63 66 6.1 15.6 0.00 0.00 0.00 81 1014.1
20150702144831 62 28 7.0 13.9 0.00 0.00 0.00 82 1014.1
20150702143335 62 12 8.7 14.8 0.00 0.00 0.00 82 1014.0
20150702141827 62 20 7.8 14.8 0.00 0.00 0.00 82 1014.0
20150702140327 62 24 6.1 11.3 0.00 0.00 0.00 83 1014.0
20150702134826 62 56 6.1 12.2 0.00 0.00 0.00 84 1014.1
20150702133326 62 27 4.3 11.3 0.00 0.00 0.00 85 1014.2
20150702131827 62 21 4.3 8.7 0.00 0.00 0.00 87 1014.4
20150702130324 61 24 4.3 10.4 0.00 0.00 0.00 89 1014.0
20150702124824 60 95 4.3 9.6 0.00 0.00 0.00 90 1013.6
20150702123325 60 28 4.3 11.3 0.00 0.00 0.00 90 1014.0
20150702121825 60 19 2.6 8.7 0.00 0.00 0.00 92 1014.1
20150702120317 59 45 5.2 11.3 0.00 0.00 0.00 92 1013.8
20150702114814 59 41 5.2 12.2 0.00 0.00 0.00 92 1013.6
20150702113312 59 38 5.2 12.2 0.00 0.00 0.00 92 1013.0
20150702111813 60 47 3.5 10.4 0.00 0.00 0.00 93 1012.8
20150702110309 59 34 4.3 11.3 0.00 0.00 0.00 94 1012.6
20150702104805 58 351 4.3 11.3 0.00 0.00 0.00 93 1012.5
20150702103302 58 9 5.2 12.2 0.00 0.00 0.00 92 1012.7
20150702101759 58 26 6.1 12.2 0.00 0.00 0.00 92 1012.7
20150702100259 58 42 3.5 7.8 0.00 0.00 0.00 92 1012.8
20150702094800 57 30 0.9 5.2 0.00 0.00 0.00 92 1012.8
20150702093301 57 28 1.7 5.2 0.00 0.00 0.00 93 1013.0
20150702091751 57 53 1.7 7.8 0.00 0.00 0.00 93 1013.1
20150702090252 56 38 2.6 7.0 0.00 0.00 0.00 93 1013.0
20150702084745 56 52 2.6 10.4 0.00 0.00 0.00 92 1013.2
20150702083242 56 32 2.6 7.8 0.00 0.00 0.00 91 1013.4
20150702081744 56 15 0.9 5.2 0.00 0.00 0.00 91 1013.7
20150702080244 56 33 2.6 7.8 0.00 0.00 0.00 90 1013.9
20150702074740 56 48 0.9 5.2 0.00 0.00 0.00 89 1013.9
20150702073238 57 20 0.9 5.2 0.00 0.00 0.00 89 1013.8
20150702071736 57 51 1.7 7.8 0.00 0.00 0.00 88 1013.7
20150702070233 57 38 1.7 12.2 0.00 0.00 0.00 88 1013.7
20150702064734 57 30 1.7 9.6 0.00 0.00 0.00 87 1013.9
20150702063226 57 23 1.7 6.1 0.00 0.00 0.00 86 1013.7
20150702061700 58 38 2.6 7.8 0.00 0.00 0.00 84 1013.6
20150702060159 58 31 0.0 4.3 0.00 0.00 0.00 83 1013.6
20150702054658 58 25 0.0 0.0 0.00 0.00 0.00 82 1013.6
20150702053135 58 25 0.0 0.0 0.00 0.00 0.00 81 1013.9
20150702051617 58 25 0.0 3.5 0.00 0.00 0.00 80 1013.7
20150702050036 58 25 0.0 8.7 0.00 0.00 0.00 80 1013.4
20150702044535 58 33 1.7 8.7 0.00 0.00 0.00 80 1013.7
20150702043033 58 29 3.5 8.7 0.00 0.00 0.00 81 1013.8
20150702041526 58 29 3.5 9.6 0.00 0.00 0.00 82 1014.0
20150702040028 57 64 2.6 8.7 0.00 0.00 0.00 83 1013.7
20150702034512 57 46 0.9 5.2 0.00 0.00 0.00 84 1014.0
20150702033012 57 28 0.9 5.2 0.00 0.00 0.00 84 1014.0
20150702031513 57 42 3.5 8.7 0.00 0.00 0.00 84 1014.0
20150702030009 57 50 3.5 7.8 0.00 0.00 0.00 84 1014.0
20150702024445 57 57 3.5 7.8 0.00 0.00 0.00 84 1014.0
20150702022946 57 28 2.6 9.6 0.00 0.00 0.00 84 1014.0
20150702021444 57 39 2.6 8.7 0.00 0.00 0.00 84 1014.0
20150702015945 57 21 2.6 9.6 0.00 0.00 0.00 84 1013.7
20150702014442 57 12 4.3 8.7 0.00 0.00 0.00 83 1013.6
20150702012942 58 14 3.5 9.6 0.00 0.00 0.00 83 1013.8
20150702011432 58 22 3.5 10.4 0.00 0.00 0.00 82 1013.7
20150702005930 58 60 3.5 8.7 0.00 0.00 0.00 81 1013.8
20150702004429 58 49 5.2 10.4 0.00 0.00 0.00 80 1013.4
20150702002926 58 40 5.2 11.3 0.00 0.00 0.00 80 1013.6
20150702001424 58 31 5.2 10.4 0.00 0.00 0.00 79 1013.6
20150701235923 59 25 3.5 8.7 0.00 0.00 0.00 78 1013.8
20150701234417 59 52 3.5 8.7 0.00 0.00 0.00 77 1013.7
20150701232919 60 51 2.6 8.7 0.00 0.00 0.00 75 1013.4
20150701231413 60 42 4.3 10.4 0.00 0.00 0.00 75 1013.3